Flag for U.S.A. Weather past 2 weeks in Fort Worth, Texas, U.S.A.

Now
71 °F

Overcast.


Feels Like: 73 °F
Forecast: 63 / 77 °F
Wind: 18 mph from Southeast

Location: Meacham International Airport

Current Time: May 5, 2015 at 10:18:37 AM

Latest Report: May 5, 2015 at 9:53 AM


Visibility: 10 mi

Pressure: 30.00 "Hg

Humidity: 73%

Dew point: 62 °F

Location of Fort WorthLocation

Historic Weather in Fort Worth — Graph

°F

Fort Worth temperature yesterday

Maximum temperature yesterday: 82 °F (at 3:53 PM)
Minimum temperature yesterday: 66 °F (at 6:53 AM)
Average temperature yesterday: 73 °F

Past Weeks' High & Low Weather Summary

 TemperatureHumidityPressure
High86 °F (Apr 25, 3:53 PM)97% (Apr 23, 4:04 AM)30.11 "Hg (Apr 23, 4:04 AM)
Low49 °F (Apr 29, 1:53 AM)27% (Apr 25, 4:53 PM)29.44 "Hg (Apr 26, 6:53 PM)
Average68 °F68%29.89 "Hg
* Reported Apr 20 9:53 AM — May 5 9:00 AM, Fort Worth, Weather by CustomWeather, © 2015

Note: Actual official high and low records may vary slightly from our data, if they occured in-between our weather recording intervals... More about our weather records

Advertising

Fort Worth weather history for previous 24 hours

 ConditionsComfort  
Time TempWeatherWind HumidityBarometerVisibility
9:00 AM
Tue, May 5
70 °FMore clouds than sun.15 mph79%30.02 "Hg10 mi
7:53 AM66 °FLow clouds.12 mph84%29.99 "Hg10 mi
6:53 AM64 °FClear.14 mph87%29.97 "Hg10 mi
5:53 AM64 °FClear.14 mph81%29.97 "Hg10 mi
4:53 AM64 °FClear.10 mph78%29.97 "Hg10 mi
3:53 AM65 °FClear.8 mph73%29.97 "Hg10 mi
2:53 AM66 °FClear.8 mph68%29.98 "Hg10 mi
1:53 AM68 °FClear.10 mph61%30.00 "Hg10 mi
12:53 AM69 °FClear.13 mph57%29.98 "Hg10 mi
11:53 PM
Mon, May 4
71 °FClear.10 mph51%29.98 "Hg10 mi
10:53 PM72 °FClear.12 mph46%29.99 "Hg10 mi
9:53 PM73 °FClear.13 mph43%29.98 "Hg10 mi
8:53 PM75 °FSunny.14 mph48%29.96 "Hg10 mi
7:53 PM77 °FSunny.17 mph52%29.95 "Hg10 mi
6:53 PM79 °FPassing clouds.17 mph50%29.95 "Hg10 mi
5:53 PM80 °FPassing clouds.18 mph51%29.96 "Hg10 mi
4:53 PM82 °FSunny.16 mph48%29.97 "Hg10 mi
3:53 PM82 °FPassing clouds.15 mph48%29.99 "Hg10 mi
2:53 PM80 °FBroken clouds.18 mph51%30.01 "Hg10 mi
1:53 PM80 °FScattered clouds.17 mph52%30.03 "Hg10 mi
12:53 PM77 °FScattered clouds.13 mph62%30.06 "Hg10 mi
11:53 AM77 °FScattered clouds.14 mph66%30.09 "Hg10 mi
11:01 AM73 °FPartly sunny.15 mph74%30.11 "Hg10 mi
Weather by CustomWeather, © 2015

See weather overviewHow to use our weather pages